CTN6J LDDU-LDZA

Flight info

Callsign CTN6J
Flight time 1h 7m
Altitude 20000
Route AMUGO DCT SIRMI DCT RUDIK
Aircraft AT76/M-SDFGIRY/S

Departure

Time 2026-05-04 16:22
Airport Dubrovnik Ruđer Bošković Airport (LDDU)

Arrival

Time 2026-05-04 17:29
Airport Zagreb Franjo Tuđman International Airport (LDZA)
Time Latitude Longitude Altitude Speed Heading
2026-05-04 15:57 42.55766 18.27132 531 ft 0 kts 208°
2026-05-04 16:16 42.55765 18.27131 531 ft 1 kts 208°
2026-05-04 16:16 42.55737 18.27172 531 ft 6 kts 43°
2026-05-04 16:17 42.55770 18.27277 530 ft 10 kts 117°
2026-05-04 16:18 42.55693 18.27470 530 ft 5 kts 119°
2026-05-04 16:18 42.55669 18.27530 530 ft 9 kts 117°
2026-05-04 16:19 42.55551 18.27826 530 ft 12 kts 118°
2026-05-04 16:19 42.55471 18.28027 531 ft 11 kts 117°
2026-05-04 16:20 42.55509 18.28149 530 ft 4 kts 30°
2026-05-04 16:20 42.55572 18.28184 530 ft 2 kts 359°
2026-05-04 16:21 42.55649 18.28061 528 ft 34 kts 299°
2026-05-04 16:22 42.56227 18.26563 650 ft 127 kts 295°
2026-05-04 16:22 42.57459 18.23001 2129 ft 146 kts 295°
2026-05-04 16:23 42.58711 18.19801 3203 ft 144 kts 298°
2026-05-04 16:24 42.60678 18.14986 4556 ft 148 kts 298°
2026-05-04 16:25 42.62624 18.12870 4937 ft 175 kts 323°
2026-05-04 16:26 42.66632 18.08380 5007 ft 226 kts 318°
2026-05-04 16:26 42.70370 18.04026 4984 ft 242 kts 319°
2026-05-04 16:27 42.72914 18.01026 5082 ft 242 kts 319°
2026-05-04 16:28 42.76726 17.96578 5234 ft 242 kts 319°
2026-05-04 16:28 42.80531 17.92093 5369 ft 241 kts 320°
2026-05-04 16:29 42.85522 17.86366 6146 ft 220 kts 320°
2026-05-04 16:30 42.88986 17.82293 6694 ft 220 kts 321°
2026-05-04 16:31 42.91322 17.79546 6919 ft 223 kts 320°
2026-05-04 16:31 42.94831 17.75412 7304 ft 223 kts 321°
2026-05-04 16:32 42.98384 17.71237 7553 ft 226 kts 322°
2026-05-04 16:33 43.00779 17.68436 7846 ft 227 kts 321°
2026-05-04 16:33 43.03174 17.65613 8124 ft 228 kts 321°
2026-05-04 16:34 43.05566 17.62788 8460 ft 226 kts 321°
2026-05-04 16:34 43.06753 17.61381 8592 ft 226 kts 321°
2026-05-04 16:35 43.10323 17.57154 8982 ft 226 kts 321°
2026-05-04 16:35 43.13921 17.52901 9363 ft 228 kts 322°
2026-05-04 16:36 43.15124 17.51476 9488 ft 229 kts 322°
2026-05-04 16:36 43.17542 17.48613 9738 ft 230 kts 321°
2026-05-04 16:37 43.19963 17.45739 9986 ft 231 kts 322°
2026-05-04 16:37 43.21177 17.44298 10084 ft 232 kts 321°
2026-05-04 16:37 43.23613 17.41397 10268 ft 232 kts 321°
2026-05-04 16:38 43.26067 17.38481 10428 ft 236 kts 321°
2026-05-04 16:39 43.29823 17.34045 10744 ft 237 kts 321°
2026-05-04 16:39 43.32301 17.31094 10951 ft 237 kts 321°
2026-05-04 16:40 43.34801 17.28108 11125 ft 239 kts 320°
2026-05-04 16:40 43.37312 17.25102 11323 ft 240 kts 321°
2026-05-04 16:41 43.39832 17.22083 11500 ft 241 kts 320°
2026-05-04 16:41 43.43627 17.17531 11766 ft 242 kts 321°
2026-05-04 16:42 43.47437 17.12949 12018 ft 243 kts 320°
2026-05-04 16:43 43.49645 17.09499 12138 ft 247 kts 287°
2026-05-04 16:43 43.50264 17.04943 12430 ft 227 kts 292°
2026-05-04 16:43 43.50663 17.02900 12806 ft 217 kts 282°
2026-05-04 16:44 43.52186 16.95317 13250 ft 222 kts 270°
2026-05-04 16:45 43.53294 16.91279 13136 ft 236 kts 285°
2026-05-04 16:46 43.54686 16.85209 13107 ft 243 kts 334°
2026-05-04 16:46 43.57988 16.85268 13104 ft 246 kts 14°
2026-05-04 16:47 43.61366 16.86148 13102 ft 252 kts
2026-05-04 16:47 43.64894 16.86181 13100 ft 256 kts 354°
2026-05-04 16:48 43.70088 16.84210 13097 ft 259 kts 336°
2026-05-04 16:48 43.71702 16.83097 13104 ft 260 kts 332°
2026-05-04 16:49 43.74641 16.80171 13097 ft 261 kts 319°
2026-05-04 16:49 43.77292 16.76796 13097 ft 261 kts 317°
2026-05-04 16:50 43.79997 16.73398 13105 ft 261 kts 319°
2026-05-04 16:50 43.82718 16.70103 13106 ft 262 kts 318°
2026-05-04 16:51 43.85482 16.66744 13105 ft 263 kts 318°
2026-05-04 16:51 43.86835 16.65089 13107 ft 263 kts 318°
2026-05-04 16:51 43.89574 16.61726 13105 ft 263 kts 317°
2026-05-04 16:52 43.92323 16.58350 13104 ft 264 kts 318°
2026-05-04 16:52 43.93693 16.56660 13105 ft 265 kts 317°
2026-05-04 16:53 43.96457 16.53266 13099 ft 265 kts 317°
2026-05-04 16:53 44.00588 16.48184 13101 ft 264 kts 318°
2026-05-04 16:54 44.01964 16.46491 13110 ft 264 kts 317°
2026-05-04 16:55 44.07466 16.39687 13097 ft 264 kts 317°
2026-05-04 16:55 44.10211 16.36295 13106 ft 264 kts 317°
2026-05-04 16:56 44.12950 16.32897 13101 ft 264 kts 317°
2026-05-04 16:56 44.17887 16.30155 13104 ft 267 kts
2026-05-04 16:57 44.19742 16.30224 13096 ft 267 kts
2026-05-04 16:57 44.23465 16.30408 13098 ft 268 kts
2026-05-04 16:58 44.29056 16.30422 13093 ft 268 kts
2026-05-04 16:58 44.30919 16.30426 13096 ft 268 kts
2026-05-04 16:59 44.34650 16.30430 13088 ft 268 kts
2026-05-04 17:00 44.41995 16.30046 13091 ft 262 kts
2026-05-04 17:00 44.47486 16.30485 13087 ft 268 kts
2026-05-04 17:01 44.51253 16.30454 13082 ft 269 kts
2026-05-04 17:01 44.54973 16.30463 13070 ft 269 kts
2026-05-04 17:02 44.58719 16.30470 13074 ft 269 kts
2026-05-04 17:02 44.62469 16.30478 13070 ft 270 kts 360°
2026-05-04 17:03 44.64349 16.30457 13066 ft 269 kts 356°
2026-05-04 17:03 44.66191 16.30186 13066 ft 266 kts 358°
2026-05-04 17:03 44.69880 16.30782 13058 ft 269 kts 10°
2026-05-04 17:04 44.73589 16.31592 13059 ft 270 kts
2026-05-04 17:04 44.77315 16.32212 13041 ft 269 kts
2026-05-04 17:05 44.81037 16.32852 13046 ft 269 kts
2026-05-04 17:05 44.84745 16.33489 13041 ft 269 kts
2026-05-04 17:06 44.88453 16.34127 13047 ft 268 kts
2026-05-04 17:06 44.90302 16.34445 13049 ft 268 kts
2026-05-04 17:07 44.93999 16.35086 13037 ft 268 kts
2026-05-04 17:07 44.95221 16.35295 13040 ft 268 kts
2026-05-04 17:07 44.97699 16.35723 13037 ft 268 kts
2026-05-04 17:07 44.99550 16.36043 13031 ft 268 kts
2026-05-04 17:08 45.01397 16.36363 13031 ft 268 kts
2026-05-04 17:08 45.05095 16.37004 13031 ft 267 kts
2026-05-04 17:08 45.06945 16.37327 13027 ft 268 kts
2026-05-04 17:09 45.08793 16.37646 13028 ft 268 kts
2026-05-04 17:09 45.10640 16.37967 13028 ft 267 kts
2026-05-04 17:09 45.12486 16.38287 13028 ft 267 kts
2026-05-04 17:10 45.15551 16.38823 13025 ft 267 kts
2026-05-04 17:10 45.21082 16.39564 13027 ft 263 kts 354°
2026-05-04 17:11 45.22887 16.39636 13024 ft 260 kts 10°
2026-05-04 17:11 45.24673 16.40133 13030 ft 263 kts 12°
2026-05-04 17:11 45.28298 16.41065 13027 ft 266 kts
2026-05-04 17:12 45.30139 16.41393 13026 ft 267 kts
2026-05-04 17:12 45.33841 16.41983 13023 ft 268 kts
2026-05-04 17:13 45.39387 16.42905 13016 ft 269 kts
2026-05-04 17:14 45.44962 16.43883 13018 ft 269 kts
2026-05-04 17:14 45.46822 16.44212 13019 ft 269 kts
2026-05-04 17:14 45.50543 16.44867 13013 ft 270 kts
2026-05-04 17:15 45.52437 16.45201 12722 ft 280 kts
2026-05-04 17:15 45.56427 16.45907 12065 ft 295 kts
2026-05-04 17:16 45.60528 16.46631 11468 ft 295 kts
2026-05-04 17:16 45.66618 16.47703 10402 ft 294 kts
2026-05-04 17:17 45.68644 16.48062 10044 ft 293 kts
2026-05-04 17:17 45.74691 16.49137 8880 ft 290 kts
2026-05-04 17:18 45.76679 16.49492 8462 ft 287 kts
2026-05-04 17:18 45.80597 16.50120 7671 ft 278 kts 356°
2026-05-04 17:19 45.84343 16.50400 6908 ft 272 kts
2026-05-04 17:19 45.87929 16.50074 6184 ft 258 kts 331°
2026-05-04 17:20 45.90843 16.47164 5429 ft 254 kts 314°
2026-05-04 17:20 45.93371 16.43627 4694 ft 250 kts 312°
2026-05-04 17:20 45.94496 16.41873 4332 ft 229 kts 298°
2026-05-04 17:21 45.94329 16.38211 4082 ft 169 kts 242°
2026-05-04 17:21 45.93070 16.35546 4010 ft 155 kts 230°
2026-05-04 17:22 45.92367 16.34412 3999 ft 150 kts 228°
2026-05-04 17:22 45.91631 16.33294 3994 ft 159 kts 227°
2026-05-04 17:23 45.88789 16.30596 3988 ft 163 kts 214°
2026-05-04 17:23 45.87851 16.29704 3987 ft 161 kts 216°
2026-05-04 17:23 45.86508 16.27438 3982 ft 140 kts 240°
2026-05-04 17:24 45.86004 16.26246 4000 ft 140 kts 237°
2026-05-04 17:24 45.84362 16.22715 3493 ft 137 kts 236°
2026-05-04 17:25 45.83812 16.21621 3280 ft 135 kts 233°
2026-05-04 17:25 45.82612 16.19566 2854 ft 134 kts 229°
2026-05-04 17:26 45.81372 16.17657 2436 ft 126 kts 229°
2026-05-04 17:26 45.79624 16.15060 1846 ft 118 kts 229°
2026-05-04 17:27 45.78523 16.13402 1473 ft 107 kts 230°
2026-05-04 17:27 45.77529 16.11866 1114 ft 105 kts 231°
2026-05-04 17:28 45.76634 16.10459 789 ft 88 kts 228°
2026-05-04 17:29 45.75296 16.08416 487 ft 94 kts 227°
2026-05-04 17:29 45.74210 16.06751 359 ft 20 kts 227°
2026-05-04 17:30 45.74009 16.06446 357 ft 13 kts 227°
2026-05-04 17:31 45.73873 16.06257 360 ft 8 kts 192°
2026-05-04 17:31 45.73768 16.06359 356 ft 9 kts 137°
2026-05-04 17:32 45.73687 16.06350 355 ft 4 kts 225°
2026-05-04 17:33 45.73568 16.06170 358 ft 10 kts 227°
2026-05-04 17:33 45.73538 16.06124 357 ft 5 kts 227°
2026-05-04 17:34 45.73468 16.06167 355 ft 0 kts 137°